Time,TemperatureF,DewpointF,PressureIn,WindDirection,WindDirectionDegrees,WindSpeedMPH,WindSpeedGustMPH,Humidity,HourlyPrecipIn,Conditions,Clouds,dailyrainin,SoftwareType,DateUTC
2013-06-19 05:53:00,55.0,47.0,29.97,WSW,248,0.0,2.0,75,0.00,,,1.02,,2013-06-19 09:53:00,
2013-06-19 06:02:00,55.0,47.0,29.99,WSW,248,0.0,0.0,75,0.00,,,1.02,,2013-06-19 10:02:00,
2013-06-19 06:12:00,55.0,47.0,29.99,WSW,248,0.0,0.0,75,0.00,,,1.02,,2013-06-19 10:12:00,
2013-06-19 06:22:00,55.0,48.0,29.98,West,273,0.0,1.0,76,0.00,,,1.02,,2013-06-19 10:22:00,
2013-06-19 06:33:00,54.0,47.0,29.98,WSW,248,0.0,1.0,77,0.00,,,1.02,,2013-06-19 10:33:00,
2013-06-19 06:42:00,54.0,47.0,29.98,WSW,248,0.0,1.0,77,0.00,,,1.02,,2013-06-19 10:42:00,
2013-06-19 06:53:00,54.0,47.0,29.99,West,260,0.0,1.0,78,0.00,,,1.02,,2013-06-19 10:53:00,
2013-06-19 07:02:00,54.0,47.0,29.99,WSW,255,0.0,1.0,78,0.00,,,1.02,,2013-06-19 11:02:00,
2013-06-19 07:12:00,54.0,47.0,29.99,WSW,255,0.0,1.0,78,0.00,,,1.02,,2013-06-19 11:12:00,
2013-06-19 07:22:00,55.0,49.0,30.01,North,9,0.0,1.0,79,0.00,,,1.02,,2013-06-19 11:22:00,
2013-06-19 07:33:00,55.0,49.0,30.01,SSW,199,0.0,0.0,79,0.00,,,1.02,,2013-06-19 11:33:00,
2013-06-19 07:43:00,55.0,49.0,30.01,SSW,199,0.0,0.0,79,0.00,,,1.02,,2013-06-19 11:43:00,
2013-06-19 07:54:00,55.0,49.0,30.01,NW,321,0.0,1.0,79,0.00,,,1.02,,2013-06-19 11:54:00,
2013-06-19 08:02:00,56.0,49.0,30.02,West,270,0.0,1.0,78,0.00,,,1.02,,2013-06-19 12:02:00,
2013-06-19 08:12:00,56.0,49.0,30.02,West,270,0.0,1.0,78,0.00,,,1.02,,2013-06-19 12:12:00,
2013-06-19 08:22:00,57.0,50.0,30.03,NNE,22,0.0,1.0,77,0.00,,,1.02,,2013-06-19 12:22:00,
2013-06-19 08:34:00,57.0,50.0,30.03,ENE,68,0.0,1.0,76,0.00,,,1.02,,2013-06-19 12:34:00,
2013-06-19 08:44:00,57.0,50.0,30.03,ENE,68,0.0,1.0,76,0.00,,,1.02,,2013-06-19 12:44:00,
2013-06-19 08:53:00,58.0,50.0,30.03,North,6,0.0,1.0,76,0.00,,,1.02,,2013-06-19 12:53:00,
2013-06-19 09:02:00,58.0,50.0,30.04,SSW,202,0.0,1.0,74,0.00,,,1.02,,2013-06-19 13:02:00,
2013-06-19 09:12:00,58.0,50.0,30.04,SSW,202,0.0,1.0,74,0.00,,,1.02,,2013-06-19 13:12:00,
2013-06-19 09:22:00,59.0,51.0,30.05,NNW,338,0.0,2.0,74,0.00,,,1.02,,2013-06-19 13:22:00,
2013-06-19 09:33:00,60.0,51.0,30.05,NNW,343,0.0,1.0,72,0.00,,,1.02,,2013-06-19 13:33:00,
2013-06-19 09:42:00,60.0,51.0,30.05,NNW,343,0.0,1.0,72,0.00,,,1.02,,2013-06-19 13:42:00,
2013-06-19 09:54:00,61.0,52.0,30.06,SSE,159,0.0,1.0,72,0.00,,,1.02,,2013-06-19 13:54:00,
2013-06-19 10:02:00,61.0,52.0,30.06,NW,324,1.0,2.0,72,0.00,,,1.02,,2013-06-19 14:02:00,
2013-06-19 10:12:00,61.0,52.0,30.06,NW,324,1.0,2.0,72,0.00,,,1.02,,2013-06-19 14:12:00,
2013-06-19 10:22:00,62.0,53.0,30.07,NW,309,0.0,3.0,72,0.00,,,1.02,,2013-06-19 14:22:00,
2013-06-19 10:33:00,63.0,53.0,30.07,ESE,102,1.0,2.0,71,0.00,,,1.02,,2013-06-19 14:33:00,
2013-06-19 10:44:00,63.0,53.0,30.07,ESE,102,1.0,2.0,71,0.00,,,1.02,,2013-06-19 14:44:00,
2013-06-19 10:53:00,64.0,54.0,30.07,NNE,22,1.0,2.0,69,0.00,,,1.02,,2013-06-19 14:53:00,
2013-06-19 11:02:00,64.0,53.0,30.07,SE,146,1.0,1.0,67,0.00,,,1.02,,2013-06-19 15:02:00,
2013-06-19 11:11:00,64.0,53.0,30.07,SE,146,1.0,1.0,67,0.00,,,1.02,,2013-06-19 15:11:00,
2013-06-19 11:22:00,66.0,53.0,30.08,East,84,2.0,6.0,64,0.00,,,1.02,,2013-06-19 15:22:00,
2013-06-19 11:33:00,67.0,54.0,30.08,NW,315,1.0,3.0,63,0.00,,,1.02,,2013-06-19 15:33:00,
2013-06-19 11:42:00,67.0,54.0,30.08,NW,315,1.0,3.0,63,0.00,,,1.02,,2013-06-19 15:42:00,
2013-06-19 11:53:00,68.0,54.0,30.08,NE,38,3.0,7.0,60,0.00,,,1.02,,2013-06-19 15:53:00,
2013-06-19 12:01:00,68.0,52.0,30.08,East,90,0.0,1.0,56,0.00,,,1.02,,2013-06-19 16:01:00,
2013-06-19 12:11:00,68.0,52.0,30.08,East,90,0.0,1.0,56,0.00,,,1.02,,2013-06-19 16:11:00,
2013-06-19 12:22:00,68.0,51.0,30.08,West,277,0.0,2.0,54,0.00,,,1.02,,2013-06-19 16:22:00,
2013-06-19 12:34:00,68.0,50.0,30.08,SSW,208,2.0,6.0,53,0.00,,,1.02,,2013-06-19 16:34:00,
2013-06-19 12:43:00,68.0,50.0,30.08,SSW,208,2.0,6.0,53,0.00,,,1.02,,2013-06-19 16:43:00,
2013-06-19 12:53:00,70.0,51.0,30.08,ESE,118,1.0,2.0,51,0.00,,,1.02,,2013-06-19 16:53:00,
2013-06-19 13:02:00,71.0,50.0,30.09,ENE,68,1.0,2.0,48,0.00,,,1.02,,2013-06-19 17:02:00,
2013-06-19 13:12:00,71.0,50.0,30.09,ENE,68,1.0,2.0,48,0.00,,,1.02,,2013-06-19 17:12:00,
2013-06-19 13:22:00,72.0,48.0,30.08,North,7,1.0,2.0,42,0.00,,,1.02,,2013-06-19 17:22:00,
2013-06-19 13:34:00,72.0,49.0,30.08,ESE,105,1.0,3.0,44,0.00,,,1.02,,2013-06-19 17:34:00,
2013-06-19 13:43:00,72.0,49.0,30.08,ESE,105,1.0,3.0,44,0.00,,,1.02,,2013-06-19 17:43:00,
2013-06-19 13:53:00,73.0,49.0,30.08,NE,44,1.0,3.0,42,0.00,,,1.02,,2013-06-19 17:53:00,
2013-06-19 14:02:00,74.0,49.0,30.08,NNE,30,1.0,3.0,41,0.00,,,1.02,,2013-06-19 18:02:00,
2013-06-19 14:12:00,74.0,49.0,30.08,NNE,30,1.0,3.0,41,0.00,,,1.02,,2013-06-19 18:12:00,
2013-06-19 14:24:00,75.0,50.0,30.08,NE,47,1.0,3.0,41,0.00,,,1.02,,2013-06-19 18:24:00,
2013-06-19 14:33:00,75.0,48.0,30.08,NNE,22,1.0,5.0,39,0.00,,,1.02,,2013-06-19 18:33:00,
2013-06-19 14:44:00,75.0,48.0,30.08,NNE,22,1.0,5.0,39,0.00,,,1.02,,2013-06-19 18:44:00,
2013-06-19 14:53:00,76.0,50.0,30.09,SW,225,1.0,3.0,40,0.00,,,1.02,,2013-06-19 18:53:00,
2013-06-19 15:01:00,76.0,49.0,30.11,NW,315,2.0,7.0,38,0.00,,,1.02,,2013-06-19 19:01:00,
2013-06-19 15:12:00,76.0,49.0,30.11,NW,315,2.0,7.0,38,0.00,,,1.02,,2013-06-19 19:12:00,
2013-06-19 15:22:00,78.0,51.0,30.13,ESE,112,1.0,5.0,39,0.00,,,1.02,,2013-06-19 19:22:00,
2013-06-19 15:32:00,78.0,51.0,30.13,NW,315,2.0,7.0,39,0.00,,,1.02,,2013-06-19 19:32:00,
2013-06-19 15:43:00,78.0,51.0,30.13,NW,315,2.0,7.0,39,0.00,,,1.02,,2013-06-19 19:43:00,
2013-06-19 15:53:00,78.0,50.0,30.15,WSW,253,0.0,2.0,38,0.00,,,1.02,,2013-06-19 19:53:00,
2013-06-19 16:02:00,78.0,49.0,30.14,NNE,30,1.0,1.0,36,0.00,,,1.02,,2013-06-19 20:02:00,
2013-06-19 16:11:00,78.0,49.0,30.14,NNE,30,1.0,1.0,36,0.00,,,1.02,,2013-06-19 20:11:00,
2013-06-19 16:22:00,79.0,51.0,30.14,WNW,284,1.0,2.0,38,0.00,,,1.02,,2013-06-19 20:22:00,
2013-06-19 16:33:00,80.0,51.0,30.14,NNW,329,1.0,2.0,36,0.00,,,1.02,,2013-06-19 20:33:00,
2013-06-19 16:42:00,80.0,51.0,30.14,NNW,329,1.0,2.0,36,0.00,,,1.02,,2013-06-19 20:42:00,
2013-06-19 16:52:00,80.0,51.0,30.14,SW,225,0.0,2.0,36,0.00,,,1.02,,2013-06-19 20:52:00,
2013-06-19 17:02:00,80.0,49.0,30.14,North,0,0.0,1.0,34,0.00,,,1.02,,2013-06-19 21:02:00,
2013-06-19 17:12:00,80.0,49.0,30.14,North,0,0.0,1.0,34,0.00,,,1.02,,2013-06-19 21:12:00,
2013-06-19 17:22:00,78.0,50.0,30.14,NNW,332,0.0,2.0,37,0.00,,,1.02,,2013-06-19 21:22:00,
2013-06-19 17:33:00,77.0,48.0,30.14,SW,220,0.0,2.0,36,0.00,,,1.02,,2013-06-19 21:33:00,
2013-06-19 17:44:00,77.0,48.0,30.14,SW,220,0.0,2.0,36,0.00,,,1.02,,2013-06-19 21:44:00,
2013-06-19 17:52:00,75.0,48.0,30.14,NW,326,0.0,1.0,39,0.00,,,1.02,,2013-06-19 21:52:00,
2013-06-19 18:02:00,75.0,49.0,30.13,North,350,1.0,2.0,40,0.00,,,1.02,,2013-06-19 22:02:00,
2013-06-19 18:11:00,75.0,49.0,30.13,North,350,1.0,2.0,40,0.00,,,1.02,,2013-06-19 22:11:00,
2013-06-19 18:22:00,73.0,49.0,30.13,ENE,68,0.0,1.0,42,0.00,,,1.02,,2013-06-19 22:22:00,
2013-06-19 18:34:00,73.0,48.0,30.13,NE,45,0.0,1.0,41,0.00,,,1.02,,2013-06-19 22:34:00,
2013-06-19 18:43:00,73.0,48.0,30.13,NE,45,0.0,1.0,41,0.00,,,1.02,,2013-06-19 22:43:00,
2013-06-19 18:53:00,72.0,48.0,30.06,WNW,299,0.0,1.0,43,0.00,,,1.02,,2013-06-19 22:53:00,
2013-06-19 19:02:00,71.0,48.0,30.06,NW,315,0.0,0.0,44,0.00,,,1.02,,2013-06-19 23:02:00,
2013-06-19 19:12:00,71.0,48.0,30.06,NW,315,0.0,0.0,44,0.00,,,1.02,,2013-06-19 23:12:00,
2013-06-19 19:23:00,71.0,49.0,30.07,North,0,0.0,0.0,45,0.00,,,1.02,,2013-06-19 23:23:00,
2013-06-19 19:33:00,70.0,48.0,30.07,North,0,0.0,0.0,45,0.00,,,1.02,,2013-06-19 23:33:00,
2013-06-19 19:43:00,70.0,48.0,30.07,North,0,0.0,0.0,45,0.00,,,1.02,,2013-06-19 23:43:00,
2013-06-19 19:52:00,69.0,48.0,30.07,North,0,0.0,0.0,47,0.00,,,1.02,,2013-06-19 23:52:00,
2013-06-19 20:02:00,69.0,48.0,30.08,North,0,0.0,0.0,47,0.00,,,1.02,,2013-06-20 00:02:00,
2013-06-19 20:12:00,69.0,48.0,30.08,North,0,0.0,0.0,47,0.00,,,1.02,,2013-06-20 00:12:00,
2013-06-19 20:22:00,68.0,49.0,30.08,North,0,0.0,0.0,51,0.00,,,1.02,,2013-06-20 00:22:00,
2013-06-19 20:33:00,67.0,49.0,30.08,North,0,0.0,0.0,52,0.00,,,1.02,,2013-06-20 00:33:00,
2013-06-19 20:44:00,67.0,49.0,30.08,North,0,0.0,0.0,52,0.00,,,1.02,,2013-06-20 00:44:00,
2013-06-19 20:52:00,66.0,48.0,30.08,North,0,0.0,0.0,53,0.00,,,1.02,,2013-06-20 00:52:00,
2013-06-19 21:02:00,66.0,50.0,30.08,North,0,0.0,0.0,56,0.00,,,1.02,,2013-06-20 01:02:00,
2013-06-19 21:11:00,66.0,50.0,30.08,North,0,0.0,0.0,56,0.00,,,1.02,,2013-06-20 01:11:00,
2013-06-19 21:22:00,65.0,49.0,30.09,North,0,0.0,0.0,57,0.00,,,1.02,,2013-06-20 01:22:00,
2013-06-19 21:33:00,64.0,49.0,30.09,North,0,0.0,0.0,59,0.00,,,1.02,,2013-06-20 01:33:00,
2013-06-19 21:44:00,64.0,49.0,30.09,North,0,0.0,0.0,59,0.00,,,1.02,,2013-06-20 01:44:00,
2013-06-19 21:53:00,63.0,48.0,30.09,North,0,0.0,0.0,59,0.00,,,1.02,,2013-06-20 01:53:00,
2013-06-19 22:02:00,63.0,49.0,30.10,North,0,0.0,0.0,60,0.00,,,1.02,,2013-06-20 02:02:00,
2013-06-19 22:11:00,63.0,49.0,30.10,North,0,0.0,0.0,60,0.00,,,1.02,,2013-06-20 02:11:00,
2013-06-19 22:24:00,62.0,47.0,30.11,North,0,0.0,0.0,59,0.00,,,1.02,,2013-06-20 02:24:00,
2013-06-19 22:34:00,62.0,47.0,30.11,North,0,0.0,0.0,59,0.00,,,1.02,,2013-06-20 02:34:00,
2013-06-19 22:43:00,62.0,47.0,30.11,North,0,0.0,0.0,59,0.00,,,1.02,,2013-06-20 02:43:00,
2013-06-19 22:52:00,62.0,47.0,30.12,North,0,0.0,0.0,59,0.00,,,1.02,,2013-06-20 02:52:00,
2013-06-19 23:02:00,62.0,47.0,30.13,North,0,0.0,0.0,59,0.00,,,1.02,,2013-06-20 03:02:00,
2013-06-19 23:11:00,62.0,47.0,30.13,North,0,0.0,0.0,59,0.00,,,1.02,,2013-06-20 03:11:00,
2013-06-19 23:22:00,62.0,47.0,30.13,North,0,0.0,0.0,59,0.00,,,1.02,,2013-06-20 03:22:00,
2013-06-19 23:33:00,62.0,47.0,30.13,North,0,0.0,0.0,59,0.00,,,1.02,,2013-06-20 03:33:00,
2013-06-19 23:43:00,62.0,47.0,30.13,North,0,0.0,0.0,59,0.00,,,1.02,,2013-06-20 03:43:00,
2013-06-19 23:54:00,62.0,47.0,30.13,North,0,0.0,0.0,59,0.00,,,0.00,,2013-06-20 03:54:00,